Hourly Weather Kozyrevo

Today, 29 October, Thursday

Time Temperature Precipitation Wind Pressure Humidity
00:00 +11°C° 0.1 mm 4 mps 753 mmHg 88%
01:00 +11°C° 0.1 mm 3 mps 753 mmHg 89%
02:00 +11°C° 0 mm 4 mps 753 mmHg 93%
03:00 +11°C° 0.1 mm 3 mps 752 mmHg 93%
04:00 +11°C° 0.1 mm 3 mps 752 mmHg 93%
05:00 +11°C° 0.1 mm 3 mps 752 mmHg 94%
06:00 +11°C° 0.1 mm 3 mps 752 mmHg 94%
07:00 +11°C° 0.1 mm 3 mps 752 mmHg 94%
08:00 +11°C° 0 mm 3 mps 752 mmHg 94%
09:00 +11°C° 0.5 mm 3 mps 752 mmHg 93%
10:00 +11°C° 0.5 mm 3 mps 752 mmHg 92%
11:00 +11°C° 0.5 mm 4 mps 752 mmHg 92%
12:00 +11°C° 0.3 mm 3 mps 752 mmHg 92%
13:00 +11°C° 0.3 mm 3 mps 752 mmHg 91%
14:00 +11°C° 0.3 mm 3 mps 751 mmHg 91%
15:00 +11°C° 0.3 mm 3 mps 751 mmHg 92%
16:00 +10°C° 0.3 mm 3 mps 751 mmHg 92%
17:00 +10°C° 0.3 mm 3 mps 751 mmHg 93%
18:00 +10°C° 0.2 mm 3 mps 751 mmHg 93%
19:00 +10°C° 0.2 mm 3 mps 751 mmHg 93%
20:00 +10°C° 0.2 mm 3 mps 751 mmHg 93%
21:00 +10°C° 0.2 mm 2 mps 751 mmHg 94%
22:00 +10°C° 0.2 mm 2 mps 751 mmHg 94%
23:00 +10°C° 0.2 mm 2 mps 750 mmHg 95%

Tomorrow, 30 October, Friday

Time Temperature Precipitation Wind Pressure Humidity
00:00 +10°C° 0.2 mm 2 mps 750 mmHg 95%
01:00 +11°C° 0.2 mm 1 mps 750 mmHg 95%
02:00 +10°C° 0.2 mm 1 mps 751 mmHg 95%
03:00 +10°C° 0.4 mm 1 mps 750 mmHg 96%
04:00 +10°C° 0.4 mm 1 mps 750 mmHg 96%
05:00 +10°C° 0.4 mm 1 mps 750 mmHg 96%
06:00 +10°C° 0.2 mm 1 mps 750 mmHg 96%
07:00 +10°C° 0.2 mm 1 mps 750 mmHg 96%
08:00 +10°C° 0.2 mm 1 mps 751 mmHg 96%
09:00 +11°C° 0.1 mm 1 mps 751 mmHg 95%
10:00 +11°C° 0.1 mm 1 mps 751 mmHg 93%
11:00 +11°C° 0.1 mm 1 mps 751 mmHg 92%
12:00 +12°C° 0.4 mm 1 mps 751 mmHg 91%
13:00 +12°C° 0.4 mm 1 mps 751 mmHg 91%
14:00 +12°C° 0.4 mm 1 mps 751 mmHg 90%
15:00 +11°C° 0.3 mm 1 mps 751 mmHg 91%
16:00 +11°C° 0.3 mm 1 mps 751 mmHg 92%
17:00 +11°C° 0.3 mm 1 mps 751 mmHg 93%
18:00 +11°C° 0.2 mm 1 mps 751 mmHg 94%
19:00 +10°C° 0.2 mm 1 mps 751 mmHg 95%
20:00 +10°C° 0.2 mm 1 mps 752 mmHg 95%
21:00 +10°C° 0.3 mm 1 mps 752 mmHg 96%
22:00 +10°C° 0.3 mm 1 mps 752 mmHg 96%
23:00 +10°C° 0.3 mm 1 mps 752 mmHg 97%

Day after tomorrow, 31 October, Saturday

Time Temperature Precipitation Wind Pressure Humidity
00:00 +10°C° 0.2 mm 1 mps 752 mmHg 97%
01:00 +10°C° 0.2 mm 1 mps 753 mmHg 97%
02:00 +10°C° 0.2 mm 1 mps 753 mmHg 97%
03:00 +9°C° 0.1 mm 2 mps 754 mmHg 97%
04:00 +9°C° 0.1 mm 2 mps 754 mmHg 97%
05:00 +8°C° 0.1 mm 2 mps 755 mmHg 97%
06:00 +9°C° 0.1 mm 2 mps 755 mmHg 96%
07:00 +9°C° 0.1 mm 2 mps 756 mmHg 95%
08:00 +9°C° 0.1 mm 2 mps 756 mmHg 94%
09:00 +9°C° 0 mm 2 mps 757 mmHg 92%
10:00 +10°C° 0 mm 3 mps 757 mmHg 89%
11:00 +10°C° 0 mm 3 mps 758 mmHg 86%
12:00 +10°C° 0 mm 3 mps 758 mmHg 85%
13:00 +10°C° 0 mm 3 mps 759 mmHg 84%
14:00 +10°C° 0 mm 3 mps 759 mmHg 83%
15:00 +9°C° 0 mm 2 mps 759 mmHg 86%
16:00 +8°C° 0 mm 2 mps 760 mmHg 89%
17:00 +7°C° 0 mm 2 mps 760 mmHg 92%
18:00 +7°C° 0 mm 2 mps 760 mmHg 93%
19:00 +6°C° 0 mm 2 mps 761 mmHg 94%
20:00 +6°C° 0 mm 2 mps 761 mmHg 94%
21:00 +6°C° 0 mm 2 mps 761 mmHg 94%
22:00 +6°C° 0 mm 1 mps 762 mmHg 94%
23:00 +6°C° 0 mm 1 mps 762 mmHg 94%

1 November, Sunday

Time Temperature Precipitation Wind Pressure Humidity
00:00 +6°C° 0 mm 1 mps 762 mmHg 93%
01:00 +5°C° 0 mm 1 mps 762 mmHg 93%
02:00 +5°C° 0 mm 1 mps 762 mmHg 93%
03:00 +5°C° 0 mm 1 mps 762 mmHg 93%
04:00 +5°C° 0 mm 1 mps 762 mmHg 93%
05:00 +4°C° 0 mm 1 mps 762 mmHg 94%
06:00 +4°C° 0 mm 1 mps 762 mmHg 94%
07:00 +4°C° 0 mm 1 mps 762 mmHg 94%
08:00 +4°C° 0 mm 1 mps 762 mmHg 94%
09:00 +6°C° 0 mm 1 mps 762 mmHg 90%
10:00 +7°C° 0 mm 1 mps 762 mmHg 87%
11:00 +8°C° 0 mm 1 mps 762 mmHg 83%
12:00 +9°C° 0 mm 1 mps 761 mmHg 82%
13:00 +9°C° 0 mm 1 mps 761 mmHg 81%
14:00 +10°C° 0 mm 1 mps 761 mmHg 81%
15:00 +9°C° 0 mm 1 mps 761 mmHg 85%
16:00 +8°C° 0 mm 1 mps 760 mmHg 89%
17:00 +7°C° 0 mm 1 mps 760 mmHg 93%
18:00 +6°C° 0 mm 2 mps 760 mmHg 94%
19:00 +5°C° 0 mm 2 mps 760 mmHg 94%
20:00 +5°C° 0 mm 2 mps 760 mmHg 95%
21:00 +5°C° 0 mm 2 mps 760 mmHg 94%
22:00 +4°C° 0 mm 2 mps 760 mmHg 94%
23:00 +4°C° 0 mm 2 mps 759 mmHg 94%

2 November, Monday

Time Temperature Precipitation Wind Pressure Humidity
00:00 +4°C° 0 mm 2 mps 759 mmHg 94%
01:00 +3°C° 0 mm 3 mps 759 mmHg 93%
02:00 +2°C° 0 mm 3 mps 759 mmHg 92%
03:00 +2°C° 0 mm 3 mps 759 mmHg 92%
04:00 +2°C° 0 mm 3 mps 758 mmHg 91%
05:00 +2°C° 0 mm 3 mps 758 mmHg 90%
06:00 +1°C° 0 mm 3 mps 758 mmHg 89%
07:00 0°C° 0 mm 4 mps 758 mmHg 88%
08:00 0°C° 0 mm 4 mps 758 mmHg 87%
09:00 +1°C° 0 mm 4 mps 758 mmHg 83%
10:00 +3°C° 0 mm 4 mps 758 mmHg 80%
11:00 +3°C° 0 mm 5 mps 757 mmHg 77%
12:00 +5°C° 0 mm 5 mps 757 mmHg 76%
13:00 +5°C° 0 mm 5 mps 757 mmHg 76%
14:00 +6°C° 0 mm 5 mps 757 mmHg 75%
15:00 +5°C° 0 mm 5 mps 757 mmHg 78%
16:00 +3°C° 0 mm 5 mps 756 mmHg 80%
17:00 +3°C° 0 mm 5 mps 756 mmHg 82%
18:00 +3°C° 0 mm 5 mps 756 mmHg 83%
19:00 +2°C° 0 mm 5 mps 756 mmHg 83%
20:00 +2°C° 0 mm 5 mps 757 mmHg 83%
21:00 +2°C° 0 mm 5 mps 757 mmHg 83%
22:00 +2°C° 0 mm 5 mps 757 mmHg 83%
23:00 +2°C° 0 mm 5 mps 757 mmHg 83%

3 November, Tuesday

Time Temperature Precipitation Wind Pressure Humidity
00:00 +2°C° 0 mm 5 mps 757 mmHg 83%
01:00 +2°C° 0 mm 5 mps 757 mmHg 83%
02:00 +2°C° 0 mm 5 mps 757 mmHg 83%
03:00 +3°C° 0 mm 5 mps 757 mmHg 84%
04:00 +3°C° 0 mm 5 mps 757 mmHg 85%
05:00 +3°C° 0 mm 5 mps 757 mmHg 87%
06:00 +3°C° 0 mm 5 mps 757 mmHg 87%
07:00 +3°C° 0 mm 5 mps 757 mmHg 88%
08:00 +5°C° 0 mm 5 mps 758 mmHg 89%
09:00 +6°C° 0 mm 5 mps 758 mmHg 86%
10:00 +7°C° 0 mm 5 mps 758 mmHg 83%
11:00 +8°C° 0 mm 6 mps 758 mmHg 80%
12:00 +8°C° 0 mm 5 mps 758 mmHg 78%
13:00 +9°C° 0 mm 5 mps 758 mmHg 77%
14:00 +9°C° 0 mm 5 mps 759 mmHg 75%
15:00 +9°C° 0 mm 5 mps 759 mmHg 78%
16:00 +8°C° 0 mm 4 mps 759 mmHg 80%
17:00 +7°C° 0 mm 4 mps 759 mmHg 83%
18:00 +7°C° 0 mm 4 mps 759 mmHg 86%
19:00 +7°C° 0 mm 4 mps 760 mmHg 88%
20:00 +7°C° 0 mm 4 mps 760 mmHg 91%
21:00 +7°C° 0 mm 4 mps 760 mmHg 92%
22:00 +6°C° 0 mm 4 mps 760 mmHg 92%
23:00 +6°C° 0 mm 4 mps 760 mmHg 92%
Show more